Flag for Canada Weather past 2 weeks in Churchill, Manitoba, Canada

Now
14 °F

Partly sunny.


Feels Like: -2 °F
Forecast: N/A
Wind: 16 mph from South

Location: Churchill

Current Time: Mar 31, 2015 at 4:51:57 PM

Latest Report: Mar 31, 2015 at 4:00 PM


Visibility: 10 mi

Pressure: 29.85 "Hg

Humidity: 79%

Dew point: 9 °F

Location of ChurchillLocation

Historic Weather in Churchill — Graph

°F

Churchill temperature yesterday

Maximum temperature yesterday: 3 °F (at 12:00 PM)
Minimum temperature yesterday: -6 °F (at 5:00 AM)
Average temperature yesterday: -1 °F

Past Weeks' High & Low Weather Summary

 TemperatureHumidityPressure
High37 °F (Mar 28, 2:00 PM)93% (Mar 28, 10:00 PM)30.44 "Hg (Mar 28, 10:00 PM)
Low-17 °F (Mar 19, 6:00 AM)48% (Mar 26, 6:00 PM)29.37 "Hg (Mar 28, 3:00 PM)
Average0 °F75%30.05 "Hg
* Reported Mar 16 3:00 PM — Mar 31 3:00 PM, Churchill, Weather by CustomWeather, © 2015

Note: Actual official high and low records may vary slightly from our data, if they occured in-between our weather recording intervals... More about our weather records

Advertising

Churchill weather history for previous 24 hours

 ConditionsComfort  
Time TempWeatherWind HumidityBarometerVisibility
3:00 PM
Tue, Mar 31
12 °FLight snow. Overcast.15 mph79%29.87 "Hg3 mi
2:00 PM10 °FLight snow. Overcast.14 mph85%29.89 "Hg3 mi
1:00 PM9 °FLight snow. Overcast.16 mph85%29.92 "Hg1 mi
12:50 PM9 °FLight snow. Overcast.15 mph78%29.93 "Hg2 mi
12:00 PM7 °FLight snow. Overcast.14 mph78%29.95 "Hg4 mi
11:00 AM3 °FLight snow. Overcast.14 mph72%29.99 "Hg10 mi
10:00 AM0 °FLight snow. Overcast.8 mph78%30.03 "Hg4 mi
9:00 AM-4 °FLight snow. Overcast.9 mph84%30.05 "Hg4 mi
8:00 AM-8 °FOvercast.5 mph77%30.05 "Hg15 mi
7:00 AM-9 °FPassing clouds.3 mph77%30.05 "Hg15 mi
6:00 AM-9 °FPassing clouds.2 mph84%30.06 "Hg15 mi
5:00 AM-8 °FPassing clouds.5 mph84%30.07 "Hg15 mi
4:00 AM-6 °FClear.6 mph77%30.07 "Hg15 mi
3:00 AM-8 °FClear.6 mph84%30.07 "Hg15 mi
2:00 AM-6 °FClear.6 mph77%30.08 "Hg15 mi
1:00 AM-8 °FClear.6 mph84%30.08 "Hg15 mi
12:00 AM-6 °FClear.6 mph84%30.08 "Hg15 mi
11:00 PM
Mon, Mar 30
-6 °FClear.7 mph84%30.08 "Hg15 mi
10:00 PM-4 °FPassing clouds.6 mph77%30.08 "Hg15 mi
9:00 PM-2 °FPassing clouds.8 mph84%30.07 "Hg15 mi
8:00 PM0 °FPassing clouds.9 mph84%30.06 "Hg15 mi
7:00 PM1 °FPassing clouds.8 mph85%30.06 "Hg15 mi
6:00 PM3 °FScattered clouds.9 mph78%30.06 "Hg15 mi
5:00 PM3 °FScattered clouds.10 mph78%30.05 "Hg15 mi
4:00 PM3 °FPartly sunny.10 mph85%30.04 "Hg15 mi
Weather by CustomWeather, © 2015

See weather overviewHow to use our weather pages